RH
76 76 75 71 67 66 65 63 62 62 63 63 75 71 58 68 64 42 70 63 69 73 63 64 58 62 58 47 50 52 54 52 47 36 18 5 4 3 4 5 7 7 7
75 70 67 66 63 61 58 52 50 55 56 58 62 67 74 61 65 65 39 72 75 52 26 29 42 44 47 46 43 43 41 34 23 11 9 5 4 3 4 5 7 8 7
69 67 66 63 46 28 20 13 11 13 16 20 30 44 58 70 67 63 65 44 77 83 36 16 13 12 15 17 20 15 12 10 9 8 5 4 4 3 4 6 8 8 7
58 64 53 26 7 3 2 2 2 2 2 3 5 8 17 38 62 72 62 68 46 70 90 70 17 13 13 12 12 12 11 11 10 9 8 7 5 4 4 6 8 7 7
17 15 4 3 3 3 3 3 3 3 3 3 3 3 2 4 16 50 74 62 69 50 68 87 82 22 9 12 13 13 13 13 13 12 9 9 8 6 6 7 7 7 7
4 3 3 4 3 3 3 3 3 3 3 3 3 3 3 3 2 7 36 74 66 70 60 60 83 79 46 8 11 12 13 13 13 12 12 10 9 9 8 8 7 7 7
4 4 4 4 4 4 3 4 3 3 3 2 2 2 2 2 2 3 5 32 72 68 73 69 53 54 73 33 7 9 10 12 13 12 11 12 10 8 8 8 8 8 8
4 4 4 4 4 4 4 3 3 3 3 2 2 2 2 2 2 2 3 4 27 65 72 71 71 63 83 93 43 7 9 10 10 12 10 12 10 8 8 8 8 9 8
5 5 4 4 4 4 4 3 3 3 3 3 3 3 2 2 2 1 1 2 3 17 54 75 72 71 71 92 95 40 8 9 9 10 12 10 12 10 8 9 10 9 8
5 5 4 4 4 4 4 3 3 3 3 3 3 3 3 3 2 2 1 1 2 2 12 51 78 74 74 75 94 93 51 8 8 10 10 11 10 12 10 10 11 8 9
5 5 5 4 4 4 4 3 3 3 3 3 3 3 3 3 3 2 2 1 1 1 2 8 44 80 77 77 80 94 94 71 12 8 10 10 10 10 12 11 10 8 10
5 5 5 4 4 4 4 4 4 4 4 4 4 4 4 4 3 3 2 2 1 1 1 1 6 39 78 81 83 83 90 92 82 24 8 10 10 10 9 9 8 8 11
6 6 5 5 5 4 4 4 4 4 4 4 4 4 4 4 4 4 3 2 2 2 1 1 1 8 33 79 83 89 85 90 92 86 41 8 10 10 10 8 8 8 11
6 6 6 6 6 6 5 5 5 5 5 5 5 5 5 4 4 4 4 3 2 2 2 1 1 1 6 36 71 95 94 100 98 97 93 56 9 10 10 10 9 9 10
7 8 8 8 8 8 8 7 7 7 6 6 6 6 6 5 5 5 4 4 3 2 2 2 1 1 1 3 26 73 100 98 95 91 97 99 72 15 9 10 10 10 10
10 10 11 11 10 10 10 10 9 9 8 8 7 7 6 6 5 5 5 4 3 3 2 2 2 1 1 1 3 17 90 98 100 94 99 99 98 89 37 8 10 10 11
11 12 12 13 12 12 11 11 11 10 10 9 8 8 8 7 6 6 6 5 4 3 3 2 2 2 2 1 1 4 39 84 89 99 99 96 99 99 97 55 11 10 11
13 13 13 13 13 12 12 12 12 12 12 11 11 10 9 8 7 6 6 6 4 4 3 2 2 2 2 1 1 1 4 47 75 76 100 91 98 98 100 96 89 47 10
14 13 12 11 10 10 11 11 12 12 12 12 12 11 10 9 8 7 7 6 5 4 3 2 2 2 2 1 1 1 1 7 81 94 100 99 100 100 98 99 100 93 77
14 11 10 10 10 10 10 10 11 11 11 12 12 12 11 10 9 9 8 7 5 4 2 2 2 2 1 1 2 2 2 1 3 31 66 93 100 99 100 98 100 100 100
13 12 12 12 12 11 11 11 11 11 11 11 12 13 13 12 11 10 9 8 6 4 2 2 2 2 2 2 2 2 3 2 2 4 24 82 98 95 94 99 100 98 99
14 14 13 13 12 11 11 11 10 11 10 9 11 14 14 13 12 11 10 8 6 4 2 2 2 2 2 2 2 2 2 5 6 8 7 38 90 96 97 100 99 98 85
15 15 14 13 13 13 12 11 11 11 11 10 14 15 15 14 13 12 10 9 6 5 3 3 3 3 3 3 3 2 2 3 7 12 31 58 77 95 97 100 95 76 92
17 16 15 15 15 14 13 12 11 12 12 11 15 16 15 14 14 12 11 9 7 5 3 3 3 3 3 3 3 3 3 3 6 20 38 45 58 94 98 99 99 99 95
19 18 16 16 16 15 13 12 12 15 15 16 18 17 16 15 14 13 11 9 7 5 3 3 3 4 4 4 3 3 3 3 4 16 48 59 84 89 87 83 71 55 53
20 19 18 17 16 14 12 12 13 17 17 19 20 19 17 16 14 13 12 9 7 5 4 4 4 4 4 4 4 4 4 3 3 5 35 74 80 46 20 7 5 6 8
Wind_Speed
4 3 2 2 3 4 6 7 8 8 8 8 8 8 9 10 12 12 11 10 8 9 8 7 7 6 6 5 6 7 9 10 11 11 11 10 11 11 11 11 11 11 10
4 2 0 2 3 5 7 8 9 8 9 8 8 7 7 7 8 9 9 7 6 7 8 6 6 5 5 6 6 7 8 9 9 9 9 9 9 9 10 10 10 9 9
4 3 4 6 7 8 9 9 8 9 8 8 7 7 6 5 4 5 5 6 6 5 8 7 7 6 6 6 6 6 7 7 8 7 7 8 8 8 9 9 10 9 8
5 5 6 7 6 6 7 7 6 6 6 7 6 6 7 6 4 4 3 3 5 6 6 7 8 8 7 7 7 8 9 9 9 9 7 6 6 6 7 8 8 8 8
3 2 2 4 4 4 5 6 7 7 7 8 8 8 7 7 7 6 6 5 5 4 5 7 7 8 9 8 8 9 9 9 9 10 8 6 5 5 5 6 6 7 7
3 2 1 1 3 4 5 6 7 8 9 9 9 9 8 7 9 9 9 9 7 6 5 6 6 7 10 10 8 8 8 9 10 10 8 7 4 4 3 4 4 6 7
3 2 2 3 3 5 6 7 8 9 10 10 11 11 11 9 7 10 11 11 11 10 9 9 8 7 8 8 8 8 9 10 10 10 9 8 5 4 2 3 5 5 7
2 3 3 4 4 6 6 8 9 10 11 12 13 14 14 14 11 7 11 13 13 13 12 12 11 8 7 9 8 8 8 9 9 10 10 9 7 4 2 3 5 6 7
1 2 3 3 4 5 6 7 8 9 10 12 14 15 16 17 16 12 8 11 14 16 16 15 14 13 10 8 8 8 8 8 9 9 9 8 7 4 2 3 3 5 8
0 1 1 2 3 4 5 6 6 8 9 11 12 13 15 17 17 17 14 8 12 15 17 18 17 16 13 11 9 8 8 9 8 8 9 8 7 5 2 2 3 4 6
2 1 1 1 2 2 3 4 5 6 7 9 10 12 14 16 17 17 17 15 10 11 16 19 19 19 17 14 12 10 8 8 9 8 7 8 7 4 2 1 3 5 5
3 2 1 0 1 2 2 2 3 4 7 8 9 10 10 12 14 16 17 16 15 11 11 16 20 21 20 18 16 15 12 11 9 9 9 8 8 6 3 3 4 6 6
3 2 1 1 2 3 4 5 6 6 6 6 8 9 9 10 11 13 14 15 15 15 13 10 15 20 22 18 19 18 16 14 12 9 10 10 9 8 8 4 5 6 7
3 2 2 2 3 4 5 6 7 7 8 9 8 8 9 10 10 11 11 12 13 13 14 13 10 14 19 22 19 20 16 13 14 13 10 11 10 10 9 10 7 7 9
5 4 4 4 5 5 6 6 7 7 7 8 9 9 9 9 9 10 10 10 11 12 12 12 12 11 13 17 21 20 18 16 20 17 15 14 12 11 12 11 11 10 10
7 7 7 7 7 7 7 7 7 8 8 9 9 9 9 9 9 9 10 10 10 10 10 10 11 12 10 13 17 20 26 19 18 21 16 17 16 14 13 13 13 13 13
10 10 9 9 9 9 9 9 9 9 9 9 9 9 9 9 9 9 9 9 10 10 9 8 9 9 11 11 12 16 16 18 24 21 20 20 18 20 17 15 14 15 15
10 10 10 10 10 10 10 10 10 10 10 10 10 10 9 9 8 8 9 9 9 8 8 7 8 8 10 11 10 10 15 22 20 31 19 24 29 25 23 23 19 17 18
11 10 9 9 10 10 10 11 11 12 12 12 12 11 10 9 9 8 8 8 7 7 7 6 6 7 8 10 11 10 9 16 25 22 23 20 18 22 29 28 18 18 19
12 11 10 10 11 11 12 13 13 13 13 13 13 13 12 11 10 9 8 8 7 6 5 4 4 6 7 8 8 10 9 8 16 25 29 27 23 24 20 27 22 25 24
14 14 13 13 13 13 14 15 15 15 14 14 13 13 13 13 12 11 10 8 7 6 5 3 2 4 5 7 8 8 9 8 8 15 22 23 23 20 22 17 20 19 17
17 15 15 15 15 15 17 17 17 16 15 15 14 14 13 13 13 12 12 10 8 6 5 3 1 3 5 7 9 8 8 7 8 5 8 16 14 15 15 16 13 9 13
19 18 18 17 18 19 19 19 19 18 17 16 14 14 14 13 12 12 12 11 9 8 6 4 2 2 4 6 8 9 9 10 11 9 2 3 6 11 14 15 16 19 13
20 21 21 21 22 21 21 20 20 19 18 17 16 15 14 14 13 12 12 11 10 9 8 7 5 4 4 6 8 9 10 11 10 10 9 4 4 9 10 14 15 16 16
25 25 26 25 24 23 22 22 21 19 18 17 16 16 16 15 15 14 13 12 11 10 10 8 7 5 4 4 6 8 9 10 9 6 5 7 8 5 3 11 18 20 20
31 28 27 26 25 24 23 23 22 20 18 16 16 16 17 16 16 15 15 13 12 11 10 10 9 7 6 4 4 4 6 7 8 7 3 1 4 12 11 10 11 10 10
Wind_Direction
165 140 105 52 14 357 351 350 347 351 351 6 20 25 28 27 34 35 39 48 57 61 67 66 69 71 59 44 44 41 40 32 32 36 42 53 62 62 58 50 45 48 51
195 187 22 343 336 325 324 324 324 330 336 347 355 358 13 18 24 27 30 29 32 37 43 48 38 40 38 24 25 27 26 22 21 25 34 43 51 57 57 52 48 45 51
236 283 309 312 316 321 321 320 318 318 321 325 327 331 337 347 4 5 13 12 7 9 13 23 37 31 24 13 14 19 17 20 17 25 50 47 42 44 49 45 43 43 57
230 267 294 311 323 334 335 343 350 354 347 343 330 324 313 308 303 307 318 343 346 344 348 360 13 22 21 18 19 25 21 27 21 15 35 48 52 41 44 43 42 48 64
176 216 298 325 334 352 8 12 15 13 4 352 344 336 321 300 281 269 275 283 296 317 329 338 350 8 3 3 11 20 9 18 28 19 17 27 48 39 39 41 42 61 78
130 132 96 29 10 18 28 30 31 20 14 6 357 348 336 311 286 265 251 258 267 278 291 311 324 336 347 354 357 6 7 12 19 28 19 15 29 48 48 54 54 87 97
123 108 85 68 50 44 40 41 36 28 24 22 18 11 5 351 304 274 257 245 249 260 272 281 291 309 326 343 352 357 359 9 9 23 13 17 21 46 62 89 90 104 109
118 94 74 61 48 44 48 47 43 34 26 27 28 26 20 12 360 310 268 257 248 248 256 268 280 290 306 325 338 348 352 1 0 15 11 14 16 43 65 102 124 135 133
99 63 73 75 64 51 48 44 43 37 28 29 28 26 24 18 13 3 316 271 255 247 248 257 265 274 282 295 314 331 343 348 354 4 12 11 16 26 74 114 142 155 150
314 30 51 62 61 45 42 39 31 30 27 23 25 24 22 22 19 15 7 328 276 260 252 248 256 261 266 275 289 306 323 339 338 1 356 3 12 7 37 125 158 172 173
235 266 4 21 26 42 44 27 16 13 16 14 14 16 17 18 20 20 15 9 340 283 263 254 248 254 259 264 270 281 298 316 325 343 344 347 351 354 345 275 197 186 188
228 217 262 309 341 334 335 343 353 354 354 356 0 8 13 13 12 11 12 11 6 348 293 265 254 249 252 258 262 267 275 291 308 328 327 331 334 329 324 291 251 207 200
250 248 250 309 298 301 314 319 322 329 337 338 340 348 356 2 7 8 6 4 5 2 352 308 269 255 250 262 252 261 268 273 286 299 311 318 318 321 314 291 266 250 225
244 258 279 290 297 301 300 305 306 313 322 327 330 335 340 347 355 359 1 358 359 359 356 348 314 275 259 243 248 263 264 286 275 278 294 302 308 309 309 303 285 262 263
248 254 266 278 285 290 292 298 303 305 309 313 319 326 330 335 341 348 351 355 353 353 353 354 347 317 283 264 246 241 248 267 275 283 276 291 295 299 299 299 297 286 274
258 269 277 281 283 286 290 295 297 301 307 309 313 316 322 327 331 336 341 346 348 349 351 351 351 347 318 285 262 248 236 239 263 257 274 281 279 290 291 293 293 291 285
260 267 274 281 288 290 292 296 299 301 305 307 310 311 314 316 318 323 331 337 339 341 346 351 348 345 338 320 292 267 252 235 242 268 263 268 270 279 285 286 289 287 287
260 268 272 275 280 281 286 292 295 299 301 303 304 305 308 309 308 310 316 324 329 333 336 339 340 344 344 335 329 293 256 232 249 247 280 271 273 281 277 278 279 284 284
255 258 264 272 280 284 288 290 294 300 305 306 306 307 308 307 305 306 310 312 314 318 323 335 334 341 344 338 335 323 295 243 234 241 251 270 281 276 271 291 283 283 289
251 256 263 272 278 283 287 290 293 297 300 302 306 307 306 305 304 301 300 299 297 294 297 311 333 347 354 349 341 331 327 293 250 240 247 255 263 274 286 282 280 284 293
249 256 266 271 277 282 283 284 285 290 294 295 295 296 296 297 297 297 295 291 284 272 259 260 325 15 23 25 17 6 355 335 302 254 244 247 258 274 279 307 300 294 312
249 260 265 268 275 280 280 279 279 281 284 286 287 288 289 291 292 292 294 293 287 276 263 250 262 26 34 36 29 25 23 10 352 331 257 237 238 262 288 275 294 26 10
251 259 262 267 273 278 278 275 275 277 281 282 280 281 282 281 282 283 283 283 281 276 261 253 285 10 29 38 41 36 34 23 22 22 13 240 235 248 248 264 300 294 296
251 257 260 265 270 275 276 271 269 271 276 277 275 276 277 277 275 272 272 273 272 266 259 257 271 311 348 12 21 28 34 35 37 43 44 58 203 215 230 264 282 280 286
248 256 258 264 271 273 272 267 264 266 272 273 274 275 276 276 274 271 265 261 261 258 252 253 260 275 302 341 10 19 22 27 32 45 59 78 98 130 240 279 292 294 286
251 252 260 268 269 271 271 267 263 261 265 264 269 274 275 272 268 266 264 261 257 254 251 251 256 265 280 306 342 9 18 20 24 28 23 263 245 304 312 314 313 325 329